Terra Bella
DateTemperatureDew Point
09/03 - 03:00 PM84.3°59.3°
09/03 - 02:45 PM83.7°56.8°
09/03 - 02:30 PM83.4°58.8°
09/03 - 02:15 PM83.0°59.5°
09/03 - 02:00 PM82.2°59.4°
09/03 - 01:45 PM81.8°57.9°
09/03 - 01:30 PM81.9°59.0°
09/03 - 01:15 PM81.3°59.8°
09/03 - 01:00 PM80.7°59.9°
09/03 - 12:45 PM80.7°60.1°
09/03 - 12:30 PM80.2°60.8°
09/03 - 12:15 PM79.3°61.1°
09/03 - 12:00 PM78.5°60.9°
09/03 - 11:45 AM77.6°60.2°
09/03 - 11:30 AM76.8°60.3°
09/03 - 11:15 AM75.9°60.3°
09/03 - 11:00 AM75.2°60.4°
09/03 - 10:45 AM74.5°59.9°
09/03 - 10:30 AM74.2°60.3°
09/03 - 10:15 AM73.5°59.9°
09/03 - 10:00 AM73.3°59.6°
09/03 - 09:45 AM73.9°59.9°
09/03 - 09:30 AM73.3°59.9°
09/03 - 09:15 AM73.0°60.1°
09/03 - 09:00 AM71.5°59.5°
09/03 - 08:45 AM70.8°58.9°
09/03 - 08:30 AM69.9°59.1°
09/03 - 08:15 AM68.4°58.4°
09/03 - 08:00 AM67.0°57.7°
09/03 - 07:45 AM65.3°57.7°
09/03 - 07:30 AM63.4°57.4°
09/03 - 07:15 AM60.1°58.0°
09/03 - 07:00 AM56.5°56.5°
09/03 - 06:45 AM53.6°53.6°
09/03 - 06:30 AM53.0°53.0°
09/03 - 06:15 AM52.7°52.7°
09/03 - 06:00 AM52.2°52.2°
09/03 - 05:45 AM52.3°52.3°
09/03 - 05:30 AM52.6°52.4°
09/03 - 05:15 AM53.0°52.7°
09/03 - 05:00 AM53.3°52.7°
09/03 - 04:45 AM53.5°52.6°
09/03 - 04:30 AM53.6°52.4°
09/03 - 04:15 AM53.4°51.8°
09/03 - 04:00 AM53.7°52.0°
09/03 - 03:45 AM54.0°52.0°
09/03 - 03:30 AM54.1°51.8°
09/03 - 03:15 AM54.4°51.7°
09/03 - 03:00 AM54.7°51.6°
09/03 - 02:45 AM55.2°51.8°
09/03 - 02:30 AM55.6°51.8°
09/03 - 02:15 AM56.1°52.1°
09/03 - 02:00 AM56.1°52.0°
09/03 - 01:45 AM56.0°52.2°
09/03 - 01:30 AM56.2°52.0°
09/03 - 01:15 AM56.6°51.8°
09/03 - 01:00 AM56.6°51.9°
09/03 - 12:45 AM56.6°52.4°
09/03 - 12:30 AM56.9°53.4°
09/03 - 12:15 AM57.3°53.7°
09/03 - 12:00 AM57.8°54.6°
09/02 - 11:45 PM57.9°55.4°
09/02 - 11:30 PM58.4°55.8°
09/02 - 11:15 PM58.8°55.4°
09/02 - 11:00 PM58.9°54.7°
09/02 - 10:45 PM59.1°54.8°
09/02 - 10:30 PM59.8°55.3°
09/02 - 10:15 PM59.5°54.5°
09/02 - 10:00 PM60.7°56.7°
09/02 - 09:45 PM61.5°57.2°
09/02 - 09:30 PM62.0°57.3°
09/02 - 09:15 PM63.0°58.5°
09/02 - 09:00 PM63.2°56.9°
09/02 - 08:45 PM63.2°56.0°
09/02 - 08:30 PM64.2°57.7°
09/02 - 08:15 PM64.8°57.9°
09/02 - 08:00 PM66.0°58.0°
09/02 - 07:45 PM67.0°56.9°
09/02 - 07:30 PM68.8°57.1°
09/02 - 07:15 PM70.5°56.1°
09/02 - 07:00 PM72.5°55.7°
09/02 - 06:45 PM74.4°54.9°
09/02 - 06:30 PM76.1°54.6°
09/02 - 06:15 PM77.6°54.3°
09/02 - 06:00 PM78.6°54.3°
09/02 - 05:45 PM80.9°54.4°
09/02 - 05:30 PM84.9°56.1°
09/02 - 05:15 PM85.1°55.8°
09/02 - 05:00 PM85.1°55.7°
09/02 - 04:45 PM85.7°56.3°
09/02 - 04:30 PM85.9°57.1°
09/02 - 04:15 PM85.6°56.2°
09/02 - 04:00 PM86.1°57.1°
09/02 - 03:45 PM85.7°56.5°
09/02 - 03:30 PM84.5°56.5°
09/02 - 03:15 PM83.9°56.2°
09/02 - 03:00 PM82.2°56.0°
09/02 - 02:45 PM81.6°56.0°
09/02 - 02:30 PM81.6°56.9°
09/02 - 02:15 PM80.6°56.8°
09/02 - 02:00 PM79.9°56.0°
09/02 - 01:45 PM80.2°56.9°
09/02 - 01:30 PM79.7°56.8°
09/02 - 01:15 PM79.6°57.3°
09/02 - 01:00 PM79.2°58.0°
09/02 - 12:45 PM78.1°55.9°
09/02 - 12:30 PM78.1°57.1°
09/02 - 12:15 PM77.2°57.8°
09/02 - 12:00 PM76.3°56.9°
09/02 - 11:45 AM75.5°56.2°
09/02 - 11:30 AM75.1°57.1°
09/02 - 11:15 AM74.2°57.2°
09/02 - 11:00 AM73.0°56.7°
09/02 - 10:45 AM72.9°56.7°
09/02 - 10:30 AM72.2°57.2°
09/02 - 10:15 AM71.3°56.6°
09/02 - 10:00 AM72.0°56.5°
09/02 - 09:45 AM72.9°56.5°
09/02 - 09:30 AM72.2°56.8°
09/02 - 09:15 AM71.4°56.0°
09/02 - 09:00 AM70.6°56.0°
09/02 - 08:45 AM70.0°55.8°
09/02 - 08:30 AM68.4°55.4°
09/02 - 08:15 AM65.9°54.3°
09/02 - 08:00 AM65.3°54.3°
09/02 - 07:45 AM64.1°54.2°
09/02 - 07:30 AM62.0°54.2°
09/02 - 07:15 AM59.0°56.4°
09/02 - 07:00 AM55.2°55.2°
09/02 - 06:45 AM52.0°52.0°
09/02 - 06:30 AM51.5°51.3°
09/02 - 06:15 AM51.3°50.8°
09/02 - 06:00 AM51.2°50.3°
09/02 - 05:45 AM51.2°50.1°
09/02 - 05:30 AM51.5°50.4°
09/02 - 05:15 AM51.5°50.0°
09/02 - 05:00 AM51.8°50.0°
09/02 - 04:45 AM52.0°49.8°
09/02 - 04:30 AM52.2°49.5°
09/02 - 04:15 AM52.3°49.3°
09/02 - 04:00 AM52.6°49.5°
09/02 - 03:45 AM52.6°49.9°
09/02 - 03:30 AM52.4°51.3°
09/02 - 03:15 AM51.9°51.4°
09/02 - 03:00 AM52.4°51.8°
09/02 - 02:45 AM53.3°52.6°
09/02 - 02:30 AM54.3°53.5°
09/02 - 02:15 AM54.7°53.6°
09/02 - 02:00 AM55.0°53.4°
09/02 - 01:45 AM54.6°52.6°
09/02 - 01:30 AM55.8°53.5°
09/02 - 01:15 AM56.2°52.7°
09/02 - 01:00 AM56.5°50.6°
09/02 - 12:45 AM57.4°50.0°
09/02 - 12:30 AM58.0°48.2°
09/02 - 12:15 AM59.1°47.8°
09/02 - 12:00 AM59.3°47.9°
09/01 - 11:45 PM58.5°48.0°
09/01 - 11:30 PM58.8°47.7°
09/01 - 11:15 PM59.5°48.6°
09/01 - 11:00 PM60.2°46.4°
09/01 - 10:45 PM61.4°46.8°
09/01 - 10:30 PM62.2°46.7°
09/01 - 10:15 PM62.5°48.1°
09/01 - 10:00 PM61.2°51.5°
09/01 - 09:45 PM60.9°55.3°
09/01 - 09:30 PM61.1°53.9°
09/01 - 09:15 PM62.2°55.2°
09/01 - 09:00 PM63.8°54.8°
09/01 - 08:45 PM64.4°53.7°
09/01 - 08:30 PM65.9°54.6°
09/01 - 08:15 PM67.2°52.8°
09/01 - 08:00 PM67.9°53.0°
09/01 - 07:45 PM68.3°52.7°
09/01 - 07:30 PM68.8°53.1°
09/01 - 07:15 PM70.2°52.8°
09/01 - 07:00 PM72.6°52.9°
09/01 - 06:45 PM74.9°51.8°
09/01 - 06:30 PM77.2°51.6°
09/01 - 06:15 PM78.2°51.5°
09/01 - 06:00 PM79.6°51.6°
09/01 - 05:45 PM82.1°52.4°
09/01 - 05:30 PM86.0°53.3°
09/01 - 05:15 PM87.5°54.0°
09/01 - 05:00 PM87.5°54.2°
09/01 - 04:45 PM88.1°52.8°
09/01 - 04:30 PM88.2°53.8°
09/01 - 04:15 PM88.2°54.6°
09/01 - 04:00 PM88.2°55.2°